This is the latest recevied weather packets stored in our database for station/object JA7ZQY-10. If no packets are shown the sender has not sent any weather packets the latest 10 day(s).
| Time | Temp. | Humidity | Pressure | Rain* | Wind** | Luminosity | Snow |
|---|---|---|---|---|---|---|---|
| 1787838970 | 22.78° C | 77% | 1006.5 hPa | 0 mm | - | - | - |
| 1787838369 | 22.78° C | 78% | 1006.2 hPa | 0 mm | - | - | - |
| 1787837769 | 22.78° C | 80% | 1006.1 hPa | 0 mm | - | - | - |
| 1787837167 | 22.78° C | 80% | 1006 hPa | 0 mm | - | - | - |
| 1787836568 | 22.78° C | 80% | 1006.5 hPa | 0 mm | - | - | - |
| 1787835967 | 22.78° C | 80% | 1006.1 hPa | 0 mm | - | - | - |
| 1787835369 | 22.78° C | 80% | 1005.9 hPa | 0 mm | - | - | - |
| 1787834768 | 22.78° C | 80% | 1005.7 hPa | 0 mm | - | - | - |
| 1787834168 | 22.78° C | 80% | 1005.8 hPa | 0 mm | - | - | - |
| 1787833567 | 22.78° C | 80% | 1006.1 hPa | 0 mm | - | - | - |
| 1787832968 | 22.78° C | 80% | 1006 hPa | 0 mm | - | - | - |
| 1787832367 | 22.78° C | 81% | 1006 hPa | 0 mm | - | - | - |
| 1787831768 | 22.78° C | 82% | 1006 hPa | 0 mm | - | - | - |
| 1787831169 | 22.78° C | 84% | 1006.2 hPa | 0 mm | - | - | - |
| 1787830567 | 22.78° C | 84% | 1006.2 hPa | 0 mm | - | - | - |
| 1787829968 | 23.33° C | 83% | 1006 hPa | 0 mm | - | - | - |
| 1787829369 | 23.33° C | 82% | 1006.2 hPa | 0 mm | - | - | - |
| 1787828767 | 23.33° C | 81% | 1006.2 hPa | 0 mm | - | - | - |
| 1787828169 | 23.89° C | 82% | 1006.3 hPa | 0 mm | - | - | - |
| 1787827568 | 23.89° C | 82% | 1006.2 hPa | 0 mm | - | - | - |
| 1787826968 | 23.89° C | 80% | 1006.2 hPa | 0 mm | - | - | - |
| 1787826368 | 24.44° C | 79% | 1006.1 hPa | 0 mm | - | - | - |
| 1787825768 | 24.44° C | 82% | 1006 hPa | 0 mm | - | - | - |
| 1787825168 | 24.44° C | 80% | 1005.8 hPa | 0 mm | - | - | - |
| 1787824568 | 24.44° C | 79% | 1005.8 hPa | 0 mm | - | - | - |
* Rain latest hour (hover to see other rain measurements)
** Current wind speed in m/s (hover to see current wind gust speed)